| time (UTC) | temp F | wind direction | speed MPH | gust MPH | rain 1hr in | rain 24hr in | rain mn in | humidity % | barometer mb |
| 20260902005534 | 0 | 270 | 3.0 | 7.0 | 0.00 | 0.00 | 0.00 | 1 | 1024.8 |
| 20260902004550 | 0 | 270 | 4.0 | 9.0 | 0.00 | 0.00 | 0.00 | 1 | 1024.7 |
| 20260902003543 | 0 | 270 | 5.0 | 8.0 | 0.00 | 0.00 | 0.00 | 1 | 1024.7 |
| 20260902002517 | 0 | 270 | 4.0 | 8.0 | 0.00 | 0.00 | 0.00 | 1 | 1024.7 |
| 20260902001613 | 0 | 270 | 5.0 | 9.0 | 0.00 | 0.00 | 0.00 | 1 | 1024.6 |
| 20260902000607 | 0 | 270 | 6.0 | 8.0 | 0.00 | 0.00 | 0.00 | 1 | 1024.5 |
| 20260901235622 | 0 | 270 | 4.0 | 9.0 | 0.00 | 0.00 | 0.00 | 1 | 1024.3 |
| 20260901234557 | 0 | 270 | 4.0 | 7.0 | 0.00 | 0.00 | 0.00 | 1 | 1024.4 |
| 20260901233552 | 0 | 270 | 5.0 | 8.0 | 0.00 | 0.00 | 0.00 | 1 | 1024.4 |
| 20260901232547 | 0 | 270 | 5.0 | 9.0 | 0.00 | 0.00 | 0.00 | 1 | 1024.4 |
| 20260901231541 | 0 | 270 | 5.0 | 9.0 | 0.00 | 0.00 | 0.00 | 1 | 1024.4 |
| 20260901230536 | 0 | 270 | 6.0 | 9.0 | 0.00 | 0.00 | 0.00 | 1 | 1024.4 |
| 20260901225531 | 0 | 270 | 5.0 | 8.0 | 0.00 | 0.00 | 0.00 | 1 | 1024.4 |
| 20260901224526 | 0 | 270 | 6.0 | 11.0 | 0.00 | 0.00 | 0.00 | 1 | 1024.4 |
| 20260901223521 | 0 | 270 | 7.0 | 11.0 | 0.00 | 0.00 | 0.00 | 1 | 1024.3 |
| 20260901222516 | 0 | 270 | 8.0 | 14.0 | 0.00 | 0.00 | 0.00 | 1 | 1024.5 |
| 20260901221610 | 0 | 270 | 7.0 | 13.0 | 0.00 | 0.00 | 0.00 | 1 | 1024.5 |
| 20260901220605 | 0 | 270 | 9.0 | 15.0 | 0.00 | 0.00 | 0.00 | 1 | 1024.5 |
| 20260901215600 | 0 | 270 | 7.0 | 11.0 | 0.00 | 0.00 | 0.00 | 1 | 1024.5 |
| 20260901214555 | 0 | 270 | 6.0 | 11.0 | 0.00 | 0.00 | 0.00 | 1 | 1024.3 |
| 20260901213551 | 0 | 270 | 7.0 | 11.0 | 0.00 | 0.00 | 0.00 | 1 | 1024.3 |
| 20260901212545 | 0 | 270 | 10.0 | 15.0 | 0.00 | 0.00 | 0.00 | 1 | 1024.4 |
| 20260901211540 | 0 | 270 | 10.0 | 16.0 | 0.00 | 0.00 | 0.00 | 1 | 1024.3 |
| 20260901210536 | 0 | 270 | 10.0 | 14.0 | 0.00 | 0.00 | 0.00 | 1 | 1024.3 |
| 20260901205529 | 0 | 270 | 8.0 | 13.0 | 0.00 | 0.00 | 0.00 | 1 | 1024.3 |
| 20260901204524 | 0 | 270 | 8.0 | 13.0 | 0.00 | 0.00 | 0.00 | 1 | 1024.3 |
| 20260901203519 | 0 | 270 | 7.0 | 11.0 | 0.00 | 0.00 | 0.00 | 1 | 1024.0 |
| 20260901202614 | 0 | 270 | 12.0 | 17.0 | 0.00 | 0.00 | 0.00 | 1 | 1024.0 |
| 20260901201610 | 0 | 270 | 8.0 | 14.0 | 0.00 | 0.00 | 0.00 | 1 | 1024.0 |
| 20260901200604 | 0 | 270 | 9.0 | 15.0 | 0.00 | 0.00 | 0.00 | 1 | 1023.7 |
| 20260901195600 | 0 | 270 | 9.0 | 13.0 | 0.00 | 0.00 | 0.00 | 1 | 1023.5 |
| 20260901194553 | 0 | 270 | 7.0 | 13.0 | 0.00 | 0.00 | 0.00 | 1 | 1023.3 |
| 20260901193548 | 0 | 270 | 6.0 | 11.0 | 0.00 | 0.00 | 0.00 | 1 | 1023.3 |
| 20260901192543 | 0 | 270 | 6.0 | 13.0 | 0.00 | 0.00 | 0.00 | 1 | 1023.1 |
| 20260901191538 | 0 | 270 | 6.0 | 11.0 | 0.00 | 0.00 | 0.00 | 1 | 1023.1 |
| 20260901190534 | 0 | 270 | 5.0 | 9.0 | 0.00 | 0.00 | 0.00 | 1 | 1022.9 |
| 20260901185548 | 0 | 270 | 6.0 | 11.0 | 0.00 | 0.00 | 0.00 | 1 | 1022.5 |
| 20260901184543 | 0 | 270 | 8.0 | 15.0 | 0.00 | 0.00 | 0.00 | 1 | 1022.6 |
| 20260901183517 | 0 | 270 | 7.0 | 13.0 | 0.00 | 0.00 | 0.00 | 1 | 1022.5 |
| 20260901182632 | 0 | 270 | 7.0 | 13.0 | 0.00 | 0.00 | 0.00 | 1 | 1022.5 |
| 20260901181607 | 0 | 270 | 8.0 | 18.0 | 0.00 | 0.00 | 0.00 | 1 | 1022.1 |
| 20260901180602 | 0 | 270 | 6.0 | 9.0 | 0.00 | 0.00 | 0.00 | 1 | 1021.8 |
| 20260901175617 | 0 | 270 | 5.0 | 13.0 | 0.00 | 0.00 | 0.00 | 1 | 1021.7 |
| 20260901174553 | 0 | 287 | 5.0 | 11.0 | 0.00 | 0.00 | 0.00 | 1 | 1021.7 |
| 20260901173606 | 0 | 293 | 6.0 | 11.0 | 0.00 | 0.00 | 0.00 | 1 | 1021.7 |
| 20260901172541 | 0 | 289 | 4.0 | 11.0 | 0.00 | 0.00 | 0.00 | 1 | 1021.5 |
| 20260901171556 | 0 | 295 | 2.0 | 9.0 | 0.00 | 0.00 | 0.00 | 1 | 1021.5 |
| 20260901170531 | 0 | 275 | 2.0 | 4.0 | 0.00 | 0.00 | 0.00 | 1 | 1021.3 |
| 20260901165527 | 0 | 270 | 1.0 | 2.0 | 0.00 | 0.00 | 0.00 | 1 | 1021.5 |
| 20260901164520 | 0 | 256 | 2.0 | 4.0 | 0.00 | 0.00 | 0.00 | 1 | 1021.5 |
| 20260901163615 | 0 | 255 | 4.0 | 6.0 | 0.00 | 0.00 | 0.00 | 1 | 1021.5 |
| 20260901162611 | 0 | 270 | 5.0 | 7.0 | 0.00 | 0.00 | 0.00 | 1 | 1021.3 |
| 20260901161605 | 0 | 252 | 2.0 | 4.0 | 0.00 | 0.00 | 0.00 | 1 | 1021.3 |
| 20260901160640 | 0 | 307 | 1.0 | 4.0 | 0.00 | 0.00 | 0.00 | 1 | 1021.4 |
| 20260901155554 | 0 | 310 | 3.0 | 6.0 | 0.00 | 0.00 | 0.00 | 1 | 1021.4 |
| 20260901154549 | 0 | 290 | 3.0 | 7.0 | 0.00 | 0.00 | 0.00 | 1 | 1021.4 |
| 20260901153544 | 0 | 261 | 4.0 | 6.0 | 0.00 | 0.00 | 0.00 | 1 | 1021.4 |
| 20260901152539 | 0 | 245 | 1.0 | 2.0 | 0.00 | 0.00 | 0.00 | 1 | 1021.5 |
| 20260901151533 | 0 | 270 | 2.0 | 6.0 | 0.00 | 0.00 | 0.00 | 1 | 1021.6 |
| 20260901150529 | 0 | 270 | 1.0 | 4.0 | 0.00 | 0.00 | 0.00 | 1 | 1021.6 |
| 20260901145542 | 0 | 270 | 3.0 | 7.0 | 0.00 | 0.00 | 0.00 | 1 | 1021.6 |
| 20260901144538 | 0 | 280 | 4.0 | 7.0 | 0.00 | 0.00 | 0.00 | 1 | 1021.7 |
| 20260901143612 | 0 | 282 | 1.0 | 4.0 | 0.00 | 0.00 | 0.00 | 1 | 1021.6 |
| 20260901142607 | 0 | 315 | 6.0 | 11.0 | 0.00 | 0.00 | 0.00 | 1 | 1021.7 |
| 20260901141602 | 0 | 256 | 2.0 | 4.0 | 0.00 | 0.00 | 0.00 | 1 | 1021.8 |
| 20260901140557 | 0 | 277 | 1.0 | 4.0 | 0.00 | 0.00 | 0.00 | 1 | 1021.9 |
| 20260901135551 | 0 | 270 | 2.0 | 4.0 | 0.00 | 0.00 | 0.00 | 1 | 1021.9 |
| 20260901134547 | 0 | 270 | 2.0 | 6.0 | 0.00 | 0.00 | 0.00 | 1 | 1022.0 |
| 20260901133541 | 0 | 248 | 3.0 | 7.0 | 0.00 | 0.00 | 0.00 | 1 | 1022.0 |
| 20260901132536 | 0 | 266 | 5.0 | 9.0 | 0.00 | 0.00 | 0.00 | 1 | 1022.1 |
| 20260901131530 | 0 | 270 | 4.0 | 9.0 | 0.00 | 0.00 | 0.00 | 1 | 1022.2 |
| 20260901130527 | 0 | 270 | 2.0 | 4.0 | 0.00 | 0.00 | 0.00 | 1 | 1022.2 |
| 20260901125520 | 0 | 270 | 7.0 | 13.0 | 0.00 | 0.00 | 0.00 | 1 | 1022.2 |
| 20260901124635 | 0 | 270 | 4.0 | 8.0 | 0.00 | 0.00 | 0.00 | 1 | 1022.1 |
| 20260901123610 | 0 | 270 | 3.0 | 6.0 | 0.00 | 0.00 | 0.00 | 1 | 1022.2 |
| 20260901122625 | 0 | 270 | 6.0 | 11.0 | 0.00 | 0.00 | 0.00 | 1 | 1022.3 |
| 20260901121600 | 0 | 270 | 4.0 | 7.0 | 0.00 | 0.00 | 0.00 | 1 | 1022.4 |
| 20260901120554 | 0 | 270 | 1.0 | 2.0 | 0.00 | 0.00 | 0.00 | 1 | 1022.6 |
| 20260901115549 | 0 | 270 | 5.0 | 11.0 | 0.00 | 0.00 | 0.00 | 1 | 1022.6 |
| 20260901114544 | 0 | 270 | 5.0 | 11.0 | 0.00 | 0.00 | 0.00 | 1 | 1022.6 |
| 20260901113539 | 0 | 270 | 3.0 | 9.0 | 0.00 | 0.00 | 0.00 | 1 | 1022.7 |
| 20260901112534 | 0 | 270 | 3.0 | 8.0 | 0.00 | 0.00 | 0.00 | 1 | 1022.7 |
| 20260901111529 | 0 | 270 | 5.0 | 11.0 | 0.00 | 0.00 | 0.00 | 1 | 1022.7 |
| 20260901110523 | 0 | 270 | 4.0 | 9.0 | 0.00 | 0.00 | 0.00 | 1 | 1022.8 |
| 20260901105518 | 0 | 270 | 4.0 | 8.0 | 0.00 | 0.00 | 0.00 | 1 | 1022.9 |
| 20260901104613 | 0 | 270 | 4.0 | 8.0 | 0.00 | 0.00 | 0.00 | 1 | 1023.0 |
| 20260901103609 | 0 | 270 | 3.0 | 9.0 | 0.00 | 0.00 | 0.00 | 1 | 1023.2 |
| 20260901102603 | 0 | 270 | 5.0 | 8.0 | 0.00 | 0.00 | 0.00 | 1 | 1023.0 |
| 20260901101559 | 0 | 270 | 5.0 | 9.0 | 0.00 | 0.00 | 0.00 | 1 | 1023.2 |
| 20260901100554 | 0 | 270 | 6.0 | 11.0 | 0.00 | 0.00 | 0.00 | 1 | 1023.1 |
| 20260901095549 | 0 | 270 | 7.0 | 11.0 | 0.00 | 0.00 | 0.00 | 1 | 1023.2 |
| 20260901094602 | 0 | 270 | 7.0 | 11.0 | 0.00 | 0.00 | 0.00 | 1 | 1023.1 |
| 20260901093537 | 0 | 270 | 6.0 | 11.0 | 0.00 | 0.00 | 0.00 | 1 | 1023.2 |
| 20260901092552 | 0 | 270 | 5.0 | 14.0 | 0.00 | 0.00 | 0.00 | 1 | 1023.2 |
| 20260901091527 | 0 | 270 | 7.0 | 11.0 | 0.00 | 0.00 | 0.00 | 1 | 1023.2 |
| 20260901090542 | 0 | 270 | 6.0 | 11.0 | 0.00 | 0.00 | 0.00 | 1 | 1023.3 |
| 20260901085518 | 0 | 270 | 9.0 | 16.0 | 0.00 | 0.00 | 0.00 | 1 | 1023.2 |
| 20260901084612 | 0 | 270 | 5.0 | 13.0 | 0.00 | 0.00 | 0.00 | 1 | 1023.1 |
| 20260901083606 | 0 | 270 | 8.0 | 16.0 | 0.00 | 0.00 | 0.00 | 1 | 1023.2 |
| 20260901082602 | 0 | 270 | 5.0 | 14.0 | 0.00 | 0.00 | 0.00 | 1 | 1023.2 |
| 20260901081556 | 0 | 270 | 7.0 | 14.0 | 0.00 | 0.00 | 0.00 | 1 | 1023.0 |
| 20260901080551 | 0 | 270 | 8.0 | 15.0 | 0.00 | 0.00 | 0.00 | 1 | 1023.0 |
| 20260901075546 | 0 | 270 | 10.0 | 16.0 | 0.00 | 0.00 | 0.00 | 1 | 1023.2 |
| 20260901074541 | 0 | 270 | 9.0 | 16.0 | 0.00 | 0.00 | 0.00 | 1 | 1023.1 |
| 20260901073536 | 0 | 270 | 9.0 | 16.0 | 0.00 | 0.00 | 0.00 | 1 | 1023.0 |
| 20260901072531 | 0 | 270 | 8.0 | 14.0 | 0.00 | 0.00 | 0.00 | 1 | 1023.0 |
| 20260901071526 | 0 | 270 | 8.0 | 14.0 | 0.00 | 0.00 | 0.00 | 1 | 1022.8 |
| 20260901070521 | 0 | 270 | 8.0 | 13.0 | 0.00 | 0.00 | 0.00 | 1 | 1022.9 |
| 20260901065615 | 0 | 270 | 8.0 | 15.0 | 0.00 | 0.00 | 0.00 | 1 | 1022.9 |
| 20260901064631 | 0 | 270 | 7.0 | 11.0 | 0.00 | 0.00 | 0.00 | 1 | 1022.8 |
| 20260901063605 | 0 | 270 | 9.0 | 14.0 | 0.00 | 0.00 | 0.00 | 1 | 1022.9 |
| 20260901062619 | 0 | 270 | 8.0 | 17.0 | 0.00 | 0.00 | 0.00 | 1 | 1022.8 |
| 20260901061554 | 0 | 270 | 12.0 | 17.0 | 0.00 | 0.00 | 0.00 | 1 | 1022.8 |
| 20260901060549 | 0 | 270 | 9.0 | 14.0 | 0.00 | 0.00 | 0.00 | 1 | 1022.8 |
| 20260901055544 | 0 | 270 | 8.0 | 15.0 | 0.00 | 0.00 | 0.00 | 1 | 1022.8 |
| 20260901054539 | 0 | 270 | 8.0 | 13.0 | 0.00 | 0.00 | 0.00 | 1 | 1022.8 |
| 20260901053534 | 0 | 270 | 9.0 | 14.0 | 0.00 | 0.00 | 0.00 | 1 | 1022.7 |
| 20260901052528 | 0 | 270 | 9.0 | 15.0 | 0.00 | 0.00 | 0.00 | 1 | 1022.7 |
| 20260901051523 | 0 | 270 | 8.0 | 13.0 | 0.00 | 0.00 | 0.00 | 1 | 1022.5 |
| 20260901050518 | 0 | 270 | 9.0 | 14.0 | 0.00 | 0.00 | 0.00 | 1 | 1022.5 |
| 20260901045613 | 0 | 270 | 7.0 | 11.0 | 0.00 | 0.00 | 0.00 | 1 | 1022.5 |
| 20260901044607 | 0 | 270 | 9.0 | 14.0 | 0.00 | 0.00 | 0.00 | 1 | 1022.4 |
| 20260901043602 | 0 | 270 | 9.0 | 18.0 | 0.00 | 0.00 | 0.00 | 1 | 1022.6 |
| 20260901042557 | 0 | 270 | 11.0 | 17.0 | 0.00 | 0.00 | 0.00 | 1 | 1022.6 |
| 20260901041552 | 0 | 270 | 9.0 | 16.0 | 0.00 | 0.00 | 0.00 | 1 | 1022.5 |
| 20260901040547 | 0 | 270 | 8.0 | 16.0 | 0.00 | 0.00 | 0.00 | 1 | 1022.6 |
| 20260901035542 | 0 | 270 | 8.0 | 13.0 | 0.00 | 0.00 | 0.00 | 1 | 1022.6 |
| 20260901034556 | 0 | 270 | 5.0 | 8.0 | 0.00 | 0.00 | 0.00 | 1 | 1022.6 |
| 20260901033532 | 0 | 270 | 7.0 | 14.0 | 0.00 | 0.00 | 0.00 | 1 | 1022.6 |
| 20260901032527 | 0 | 270 | 7.0 | 11.0 | 0.00 | 0.00 | 0.00 | 1 | 1022.7 |
| 20260901031520 | 0 | 270 | 7.0 | 13.0 | 0.00 | 0.00 | 0.00 | 1 | 1022.8 |
| 20260901030616 | 0 | 270 | 7.0 | 13.0 | 0.00 | 0.00 | 0.00 | 1 | 1022.8 |
| 20260901025611 | 0 | 270 | 7.0 | 14.0 | 0.00 | 0.00 | 0.00 | 1 | 1022.9 |
| 20260901024606 | 0 | 270 | 7.0 | 13.0 | 0.00 | 0.00 | 0.00 | 1 | 1022.8 |
| 20260901023600 | 0 | 270 | 7.0 | 13.0 | 0.00 | 0.00 | 0.00 | 1 | 1022.9 |
| 20260901022615 | 0 | 270 | 5.0 | 11.0 | 0.00 | 0.00 | 0.00 | 1 | 1022.9 |
| 20260901021549 | 0 | 270 | 5.0 | 11.0 | 0.00 | 0.00 | 0.00 | 1 | 1023.1 |
| 20260901020626 | 0 | 270 | 6.0 | 11.0 | 0.00 | 0.00 | 0.00 | 1 | 1023.0 |
| 20260901015540 | 0 | 270 | 6.0 | 14.0 | 0.00 | 0.00 | 0.00 | 1 | 1023.1 |
| 20260901014535 | 0 | 270 | 9.0 | 16.0 | 0.00 | 0.00 | 0.00 | 1 | 1023.3 |
| 20260901013529 | 0 | 270 | 6.0 | 11.0 | 0.00 | 0.00 | 0.00 | 1 | 1023.3 |
| 20260901012524 | 0 | 270 | 5.0 | 11.0 | 0.00 | 0.00 | 0.00 | 1 | 1023.6 |
| 20260901011518 | 0 | 270 | 6.0 | 11.0 | 0.00 | 0.00 | 0.00 | 1 | 1023.5 |
| 20260901010613 | 0 | 270 | 7.0 | 11.0 | 0.00 | 0.00 | 0.00 | 1 | 1023.6 |